Year,Month,Day,Hour,Minute,Value (Times are PST for temperature in C)
2007,05,30,00,00,14.80
2007,05,30,00,01,14.80
2007,05,30,00,02,14.80
2007,05,30,00,03,14.80
2007,05,30,00,04,14.80
2007,05,30,00,05,14.90
2007,05,30,00,06,14.90
2007,05,30,00,07,15.00
2007,05,30,00,08,15.00
2007,05,30,00,09,15.00
2007,05,30,00,10,15.10
2007,05,30,00,11,15.10
2007,05,30,00,12,15.10
2007,05,30,00,13,15.10
2007,05,30,00,14,15.20
2007,05,30,00,15,15.10
2007,05,30,00,16,15.20
2007,05,30,00,17,15.20
2007,05,30,00,18,15.20
2007,05,30,00,19,15.20
2007,05,30,00,20,15.20
2007,05,30,00,21,15.20
2007,05,30,00,22,15.20
2007,05,30,00,23,15.20
2007,05,30,00,24,15.20
2007,05,30,00,25,15.10
2007,05,30,00,26,15.10
2007,05,30,00,27,15.10
2007,05,30,00,28,15.00
2007,05,30,00,29,15.00
2007,05,30,00,30,15.00
2007,05,30,00,31,15.00
2007,05,30,00,32,15.00
2007,05,30,00,33,14.90
2007,05,30,00,34,14.90
2007,05,30,00,35,14.80
2007,05,30,00,36,14.80
2007,05,30,00,37,14.80
2007,05,30,00,38,14.80
2007,05,30,00,39,14.80
2007,05,30,00,40,14.80
2007,05,30,00,41,14.80
2007,05,30,00,42,14.80
2007,05,30,00,43,14.80
2007,05,30,00,44,14.80
2007,05,30,00,45,14.80
2007,05,30,00,46,14.80
2007,05,30,00,47,14.80
2007,05,30,00,48,14.80
2007,05,30,00,49,14.90
2007,05,30,00,50,14.90
2007,05,30,00,51,14.90
2007,05,30,00,52,15.00
2007,05,30,00,53,15.00
2007,05,30,00,54,15.00
2007,05,30,00,55,15.10
2007,05,30,00,56,15.10
2007,05,30,00,57,15.10
2007,05,30,00,58,15.10
2007,05,30,00,59,15.10
2007,05,30,01,00,15.10
2007,05,30,01,01,15.10
2007,05,30,01,02,15.10
2007,05,30,01,03,15.10
2007,05,30,01,04,15.10
2007,05,30,01,05,15.10
2007,05,30,01,06,15.10
2007,05,30,01,07,15.10
2007,05,30,01,08,15.10
2007,05,30,01,09,15.10
2007,05,30,01,10,15.00
2007,05,30,01,11,15.00
2007,05,30,01,12,15.00
2007,05,30,01,13,15.10
2007,05,30,01,14,15.10
2007,05,30,01,15,15.10
2007,05,30,01,16,15.20
2007,05,30,01,17,15.20
2007,05,30,01,18,15.20
2007,05,30,01,19,15.20
2007,05,30,01,20,15.20
2007,05,30,01,21,15.10
2007,05,30,01,22,15.10
2007,05,30,01,23,15.00
2007,05,30,01,24,15.00
2007,05,30,01,25,15.00
2007,05,30,01,26,14.90
2007,05,30,01,27,15.00
2007,05,30,01,28,15.00
2007,05,30,01,29,15.00
2007,05,30,01,30,15.10
2007,05,30,01,31,15.10
2007,05,30,01,32,15.20
2007,05,30,01,33,15.20
2007,05,30,01,34,15.30
2007,05,30,01,35,15.30
2007,05,30,01,36,15.30
2007,05,30,01,37,15.30
2007,05,30,01,38,15.30
2007,05,30,01,39,15.30
2007,05,30,01,40,15.30
2007,05,30,01,41,15.30
2007,05,30,01,42,15.30
2007,05,30,01,43,15.20
2007,05,30,01,44,15.20
2007,05,30,01,45,15.20
2007,05,30,01,46,15.20
2007,05,30,01,47,15.20
2007,05,30,01,48,15.20
2007,05,30,01,49,15.30
2007,05,30,01,50,15.30
2007,05,30,01,51,15.40
2007,05,30,01,52,15.50
2007,05,30,01,53,15.50
2007,05,30,01,54,15.60
2007,05,30,01,55,15.60
2007,05,30,01,56,15.70
2007,05,30,01,57,15.70
2007,05,30,01,58,15.70
2007,05,30,01,59,15.70
2007,05,30,02,00,15.70
2007,05,30,02,01,15.70
2007,05,30,02,02,15.70
2007,05,30,02,03,15.70
2007,05,30,02,04,15.60
2007,05,30,02,05,15.60
2007,05,30,02,06,15.50
2007,05,30,02,07,15.40
2007,05,30,02,08,15.30
2007,05,30,02,09,15.20
2007,05,30,02,10,15.10
2007,05,30,02,11,15.00
2007,05,30,02,12,15.00
2007,05,30,02,13,15.00
2007,05,30,02,14,15.00
2007,05,30,02,15,15.00
2007,05,30,02,16,15.00
2007,05,30,02,17,15.00
2007,05,30,02,18,15.10
2007,05,30,02,19,15.10
2007,05,30,02,20,15.20
2007,05,30,02,21,15.30
2007,05,30,02,22,15.30
2007,05,30,02,23,15.30
2007,05,30,02,24,15.40
2007,05,30,02,25,15.40
2007,05,30,02,26,15.50
2007,05,30,02,27,15.50
2007,05,30,02,28,15.60
2007,05,30,02,29,15.60
2007,05,30,02,30,15.60
2007,05,30,02,31,15.70
2007,05,30,02,32,15.70
2007,05,30,02,33,15.80
2007,05,30,02,34,15.80
2007,05,30,02,35,15.80
2007,05,30,02,36,15.90
2007,05,30,02,37,15.90
2007,05,30,02,38,15.90
2007,05,30,02,39,16.10
2007,05,30,02,40,16.10
2007,05,30,02,41,16.10
2007,05,30,02,42,16.10
2007,05,30,02,43,16.10
2007,05,30,02,44,16.10
2007,05,30,02,45,16.10
2007,05,30,02,46,16.10
2007,05,30,02,47,16.10
2007,05,30,02,48,16.10
2007,05,30,02,49,16.10
2007,05,30,02,50,16.10
2007,05,30,02,51,16.10
2007,05,30,02,52,16.00
2007,05,30,02,53,15.90
2007,05,30,02,54,15.80
2007,05,30,02,55,15.80
2007,05,30,02,56,15.80
2007,05,30,02,57,15.80
2007,05,30,02,58,15.80
2007,05,30,02,59,15.80
2007,05,30,03,00,15.80
2007,05,30,03,01,15.80
2007,05,30,03,02,15.80
2007,05,30,03,03,15.70
2007,05,30,03,04,15.70
2007,05,30,03,05,15.60
2007,05,30,03,06,15.60
2007,05,30,03,07,15.60
2007,05,30,03,08,15.50
2007,05,30,03,09,15.50
2007,05,30,03,10,15.50
2007,05,30,03,11,15.50
2007,05,30,03,12,15.40
2007,05,30,03,13,15.40
2007,05,30,03,14,15.40
2007,05,30,03,15,15.40
2007,05,30,03,16,15.30
2007,05,30,03,17,15.40
2007,05,30,03,18,15.40
2007,05,30,03,19,15.40
2007,05,30,03,20,15.50
2007,05,30,03,21,15.50
2007,05,30,03,22,15.50
2007,05,30,03,23,15.60
2007,05,30,03,24,15.60
2007,05,30,03,25,15.60
2007,05,30,03,26,15.60
2007,05,30,03,27,15.60
2007,05,30,03,28,15.70
2007,05,30,03,29,15.70
2007,05,30,03,30,15.60
2007,05,30,03,31,15.70
2007,05,30,03,32,15.70
2007,05,30,03,33,15.70
2007,05,30,03,34,15.70
2007,05,30,03,35,15.70
2007,05,30,03,36,15.70
2007,05,30,03,37,15.70
2007,05,30,03,38,15.70
2007,05,30,03,39,15.60
2007,05,30,03,40,15.60
2007,05,30,03,41,15.60
2007,05,30,03,42,15.50
2007,05,30,03,43,15.50
2007,05,30,03,44,15.50
2007,05,30,03,45,15.50
2007,05,30,03,46,15.40
2007,05,30,03,47,15.40
2007,05,30,03,48,15.40
2007,05,30,03,49,15.40
2007,05,30,03,50,15.40
2007,05,30,03,51,15.40
2007,05,30,03,52,15.40
2007,05,30,03,53,15.40
2007,05,30,03,54,15.30
2007,05,30,03,55,15.30
2007,05,30,03,56,15.30
2007,05,30,03,57,15.30
2007,05,30,03,58,15.30
2007,05,30,03,59,15.30
2007,05,30,04,00,15.30
2007,05,30,04,01,15.30
2007,05,30,04,02,15.30
2007,05,30,04,03,15.30
2007,05,30,04,04,15.30
2007,05,30,04,05,15.30
2007,05,30,04,06,15.30
2007,05,30,04,07,15.30
2007,05,30,04,08,15.20
2007,05,30,04,09,15.10
2007,05,30,04,10,15.10
2007,05,30,04,11,15.00
2007,05,30,04,12,15.00
2007,05,30,04,13,14.90
2007,05,30,04,14,14.80
2007,05,30,04,15,14.60
2007,05,30,04,16,14.60
2007,05,30,04,17,14.50
2007,05,30,04,18,14.40
2007,05,30,04,19,14.40
2007,05,30,04,20,14.40
2007,05,30,04,21,14.40
2007,05,30,04,22,14.40
2007,05,30,04,23,14.30
2007,05,30,04,24,14.30
2007,05,30,04,25,14.20
2007,05,30,04,26,14.20
2007,05,30,04,27,14.10
2007,05,30,04,28,14.00
2007,05,30,04,29,14.00
2007,05,30,04,30,13.90
2007,05,30,04,31,13.80
2007,05,30,04,32,13.70
2007,05,30,04,33,13.70
2007,05,30,04,34,13.70
2007,05,30,04,35,13.60
2007,05,30,04,36,13.60
2007,05,30,04,37,13.50
2007,05,30,04,38,13.50
2007,05,30,04,39,13.40
2007,05,30,04,40,13.30
2007,05,30,04,41,13.30
2007,05,30,04,42,13.30
2007,05,30,04,43,13.30
2007,05,30,04,44,13.30
2007,05,30,04,45,13.30
2007,05,30,04,46,13.30
2007,05,30,04,47,13.30
2007,05,30,04,48,13.30
2007,05,30,04,49,13.30
2007,05,30,04,50,13.30
2007,05,30,04,51,13.30
2007,05,30,04,52,13.30
2007,05,30,04,53,13.30
2007,05,30,04,54,13.20
2007,05,30,04,55,13.20
2007,05,30,04,56,13.20
2007,05,30,04,57,13.10
2007,05,30,04,58,13.10
2007,05,30,04,59,13.00
2007,05,30,05,00,12.90
2007,05,30,05,01,12.90
2007,05,30,05,02,12.80
2007,05,30,05,03,12.80
2007,05,30,05,04,12.70
2007,05,30,05,05,12.70
2007,05,30,05,06,12.70
2007,05,30,05,07,12.60
2007,05,30,05,08,12.60
2007,05,30,05,09,12.60
2007,05,30,05,10,12.50
2007,05,30,05,11,12.50
2007,05,30,05,12,12.50
2007,05,30,05,13,12.50
2007,05,30,05,14,12.50
2007,05,30,05,15,12.50
2007,05,30,05,16,12.40
2007,05,30,05,17,12.40
2007,05,30,05,18,12.40
2007,05,30,05,19,12.40
2007,05,30,05,20,12.40
2007,05,30,05,21,12.40
2007,05,30,05,22,12.40
2007,05,30,05,23,12.40
2007,05,30,05,24,12.40
2007,05,30,05,25,12.40
2007,05,30,05,26,12.40
2007,05,30,05,27,12.40
2007,05,30,05,28,12.40
2007,05,30,05,29,12.40
2007,05,30,05,30,12.40
2007,05,30,05,31,12.40
2007,05,30,05,32,12.50
2007,05,30,05,33,12.50
2007,05,30,05,34,12.50
2007,05,30,05,35,12.50
2007,05,30,05,36,12.50
2007,05,30,05,37,12.50
2007,05,30,05,38,12.50
2007,05,30,05,39,12.50
2007,05,30,05,40,12.50
2007,05,30,05,41,12.50
2007,05,30,05,42,12.40
2007,05,30,05,43,12.40
2007,05,30,05,44,12.40
2007,05,30,05,45,12.30
2007,05,30,05,46,12.30
2007,05,30,05,47,12.30
2007,05,30,05,48,12.30
2007,05,30,05,49,12.30
2007,05,30,05,50,12.30
2007,05,30,05,51,12.40
2007,05,30,05,52,12.40
2007,05,30,05,53,12.40
2007,05,30,05,54,12.40
2007,05,30,05,55,12.40
2007,05,30,05,56,12.50
2007,05,30,05,57,12.50
2007,05,30,05,58,12.50
2007,05,30,05,59,12.50
2007,05,30,06,00,12.50
2007,05,30,06,01,12.50
2007,05,30,06,02,12.60
2007,05,30,06,03,12.60
2007,05,30,06,04,12.60
2007,05,30,06,05,12.60
2007,05,30,06,06,12.60
2007,05,30,06,07,12.70
2007,05,30,06,08,12.70
2007,05,30,06,09,12.70
2007,05,30,06,10,12.70
2007,05,30,06,11,12.70
2007,05,30,06,12,12.70
2007,05,30,06,13,12.70
2007,05,30,06,14,12.80
2007,05,30,06,15,12.80
2007,05,30,06,16,12.80
2007,05,30,06,17,12.80
2007,05,30,06,18,12.90
2007,05,30,06,19,12.90
2007,05,30,06,20,13.00
2007,05,30,06,21,13.00
2007,05,30,06,22,13.10
2007,05,30,06,23,13.20
2007,05,30,06,24,13.30
2007,05,30,06,25,13.30
2007,05,30,06,26,13.40
2007,05,30,06,27,13.50
2007,05,30,06,28,13.60
2007,05,30,06,29,13.70
2007,05,30,06,30,13.70
2007,05,30,06,31,13.70
2007,05,30,06,32,13.80
2007,05,30,06,33,13.80
2007,05,30,06,34,13.90
2007,05,30,06,35,13.90
2007,05,30,06,36,14.00
2007,05,30,06,37,14.00
2007,05,30,06,38,14.10
2007,05,30,06,39,14.20
2007,05,30,06,40,14.30
2007,05,30,06,41,14.30
2007,05,30,06,42,14.40
2007,05,30,06,43,14.50
2007,05,30,06,44,14.50
2007,05,30,06,45,14.60
2007,05,30,06,46,14.60
2007,05,30,06,47,14.70
2007,05,30,06,48,14.80
2007,05,30,06,49,15.00
2007,05,30,06,50,15.10
2007,05,30,06,51,15.20
2007,05,30,06,52,15.30
2007,05,30,06,53,15.60
2007,05,30,06,54,15.70
2007,05,30,06,55,15.90
2007,05,30,06,56,16.00
2007,05,30,06,57,16.10
2007,05,30,06,58,16.20
2007,05,30,06,59,16.20
2007,05,30,07,00,16.20
2007,05,30,07,01,16.30
2007,05,30,07,02,16.30
2007,05,30,07,03,16.30
2007,05,30,07,04,16.30
2007,05,30,07,05,16.40
2007,05,30,07,06,16.40
2007,05,30,07,07,16.40
2007,05,30,07,08,16.40
2007,05,30,07,09,16.40
2007,05,30,07,10,16.50
2007,05,30,07,11,16.60
2007,05,30,07,12,16.70
2007,05,30,07,13,16.80
2007,05,30,07,14,16.90
2007,05,30,07,15,16.90
2007,05,30,07,16,17.00
2007,05,30,07,17,17.10
2007,05,30,07,18,17.30
2007,05,30,07,19,17.40
2007,05,30,07,20,17.50
2007,05,30,07,21,17.50
2007,05,30,07,22,17.70
2007,05,30,07,23,17.80
2007,05,30,07,24,17.90
2007,05,30,07,25,17.90
2007,05,30,07,26,17.90
2007,05,30,07,27,17.90
2007,05,30,07,28,18.00
2007,05,30,07,29,18.10
2007,05,30,07,30,18.10
2007,05,30,07,31,18.10
2007,05,30,07,32,18.10
2007,05,30,07,33,18.10
2007,05,30,07,34,17.90
2007,05,30,07,35,17.80
2007,05,30,07,36,17.80
2007,05,30,07,37,17.70
2007,05,30,07,38,17.80
2007,05,30,07,39,17.70
2007,05,30,07,40,17.70
2007,05,30,07,41,17.70
2007,05,30,07,42,17.70
2007,05,30,07,43,17.60
2007,05,30,07,44,17.50
2007,05,30,07,45,17.50
2007,05,30,07,46,17.50
2007,05,30,07,47,17.50
2007,05,30,07,48,17.50
2007,05,30,07,49,17.60
2007,05,30,07,50,17.60
2007,05,30,07,51,17.60
2007,05,30,07,52,17.60
2007,05,30,07,53,17.60
2007,05,30,07,54,17.50
2007,05,30,07,55,17.40
2007,05,30,07,56,17.50
2007,05,30,07,57,17.40
2007,05,30,07,58,17.40
2007,05,30,07,59,17.50
2007,05,30,08,00,17.50
2007,05,30,08,01,17.40
2007,05,30,08,02,17.30
2007,05,30,08,03,17.30
2007,05,30,08,04,17.30
2007,05,30,08,05,17.20
2007,05,30,08,06,17.20
2007,05,30,08,07,17.30
2007,05,30,08,08,17.20
2007,05,30,08,09,17.20
2007,05,30,08,10,17.20
2007,05,30,08,11,17.20
2007,05,30,08,12,17.30
2007,05,30,08,13,17.40
2007,05,30,08,14,17.50
2007,05,30,08,15,17.60
2007,05,30,08,16,17.60
2007,05,30,08,17,17.50
2007,05,30,08,18,17.60
2007,05,30,08,19,17.70
2007,05,30,08,20,17.70
2007,05,30,08,21,17.80
2007,05,30,08,22,17.80
2007,05,30,08,23,17.90
2007,05,30,08,24,17.90
2007,05,30,08,25,17.90
2007,05,30,08,26,17.90
2007,05,30,08,27,17.90
2007,05,30,08,28,17.90
2007,05,30,08,29,17.90
2007,05,30,08,30,17.90
2007,05,30,08,31,17.90
2007,05,30,08,32,17.90
2007,05,30,08,33,17.90
2007,05,30,08,34,17.90
2007,05,30,08,35,17.80
2007,05,30,08,36,17.80
2007,05,30,08,37,17.90
2007,05,30,08,38,17.80
2007,05,30,08,39,17.70
2007,05,30,08,40,17.70
2007,05,30,08,41,17.70
2007,05,30,08,42,17.70
2007,05,30,08,43,17.70
2007,05,30,08,44,17.60
2007,05,30,08,45,17.50
2007,05,30,08,46,17.40
2007,05,30,08,47,17.30
2007,05,30,08,48,17.30
2007,05,30,08,49,17.30
2007,05,30,08,50,17.20
2007,05,30,08,51,17.30
2007,05,30,08,52,17.30
2007,05,30,08,53,17.30
2007,05,30,08,54,17.20
2007,05,30,08,55,17.10
2007,05,30,08,56,17.00
2007,05,30,08,57,17.10
2007,05,30,08,58,17.20
2007,05,30,08,59,17.30
2007,05,30,09,00,17.30
2007,05,30,09,01,17.40
2007,05,30,09,02,17.40
2007,05,30,09,03,17.40
2007,05,30,09,04,17.40
2007,05,30,09,05,17.40
2007,05,30,09,06,17.30
2007,05,30,09,07,17.30
2007,05,30,09,08,17.30
2007,05,30,09,09,17.40
2007,05,30,09,10,17.50
2007,05,30,09,11,17.60
2007,05,30,09,12,17.70
2007,05,30,09,13,17.80
2007,05,30,09,14,17.90
2007,05,30,09,15,17.90
2007,05,30,09,16,18.00
2007,05,30,09,17,18.10
2007,05,30,09,18,18.10
2007,05,30,09,19,18.20
2007,05,30,09,20,18.20
2007,05,30,09,21,18.20
2007,05,30,09,22,18.30
2007,05,30,09,23,18.50
2007,05,30,09,24,18.60
2007,05,30,09,25,18.60
2007,05,30,09,26,18.60
2007,05,30,09,27,18.60
2007,05,30,09,28,18.50
2007,05,30,09,29,18.40
2007,05,30,09,30,18.30
2007,05,30,09,31,18.30
2007,05,30,09,32,18.30
2007,05,30,09,33,18.50
2007,05,30,09,34,18.50
2007,05,30,09,35,18.60
2007,05,30,09,36,18.70
2007,05,30,09,37,18.70
2007,05,30,09,38,18.70
2007,05,30,09,39,18.70
2007,05,30,09,40,18.70
2007,05,30,09,41,18.80
2007,05,30,09,42,18.80
2007,05,30,09,43,18.80
2007,05,30,09,44,18.80
2007,05,30,09,45,18.90
2007,05,30,09,46,18.80
2007,05,30,09,47,18.80
2007,05,30,09,48,18.80
2007,05,30,09,49,18.90
2007,05,30,09,50,18.90
2007,05,30,09,51,18.90
2007,05,30,09,52,19.00
2007,05,30,09,53,19.10
2007,05,30,09,54,19.10
2007,05,30,09,55,19.10
2007,05,30,09,56,19.20
2007,05,30,09,57,19.10
2007,05,30,09,58,19.10
2007,05,30,09,59,19.10
2007,05,30,10,00,19.10
2007,05,30,10,01,19.10
2007,05,30,10,02,19.10
2007,05,30,10,03,19.20
2007,05,30,10,04,19.30
2007,05,30,10,05,19.40
2007,05,30,10,06,19.50
2007,05,30,10,07,19.60
2007,05,30,10,08,19.60
2007,05,30,10,09,19.60
2007,05,30,10,10,19.50
2007,05,30,10,11,19.50
2007,05,30,10,12,19.50
2007,05,30,10,13,19.40
2007,05,30,10,14,19.40
2007,05,30,10,15,19.40
2007,05,30,10,16,19.40
2007,05,30,10,17,19.40
2007,05,30,10,18,19.40
2007,05,30,10,19,19.40
2007,05,30,10,20,19.50
2007,05,30,10,21,19.50
2007,05,30,10,22,19.40
2007,05,30,10,23,19.20
2007,05,30,10,24,19.10
2007,05,30,10,25,19.00
2007,05,30,10,26,18.90
2007,05,30,10,27,18.80
2007,05,30,10,28,18.80
2007,05,30,10,29,18.90
2007,05,30,10,30,18.90
2007,05,30,10,31,19.00
2007,05,30,10,32,19.20
2007,05,30,10,33,19.30
2007,05,30,10,34,19.40
2007,05,30,10,35,19.50
2007,05,30,10,36,19.50
2007,05,30,10,37,19.60
2007,05,30,10,38,19.60
2007,05,30,10,39,19.60
2007,05,30,10,40,19.60
2007,05,30,10,41,19.60
2007,05,30,10,42,19.50
2007,05,30,10,43,19.50
2007,05,30,10,44,19.50
2007,05,30,10,45,19.50
2007,05,30,10,46,19.50
2007,05,30,10,47,19.40
2007,05,30,10,48,19.30
2007,05,30,10,49,19.30
2007,05,30,10,50,19.40
2007,05,30,10,51,19.40
2007,05,30,10,52,19.30
2007,05,30,10,53,19.20
2007,05,30,10,54,19.10
2007,05,30,10,55,19.00
2007,05,30,10,56,18.90
2007,05,30,10,57,18.90
2007,05,30,10,58,18.90
2007,05,30,10,59,18.90
2007,05,30,11,00,18.90
2007,05,30,11,01,18.90
2007,05,30,11,02,18.90
2007,05,30,11,03,19.00
2007,05,30,11,04,19.10
2007,05,30,11,05,19.10
2007,05,30,11,06,19.00
2007,05,30,11,07,18.90
2007,05,30,11,08,19.00
2007,05,30,11,09,19.10
2007,05,30,11,10,19.10
2007,05,30,11,11,19.20
2007,05,30,11,12,19.20
2007,05,30,11,13,19.20
2007,05,30,11,14,19.10
2007,05,30,11,15,19.10
2007,05,30,11,16,19.10
2007,05,30,11,17,19.10
2007,05,30,11,18,19.10
2007,05,30,11,19,19.10
2007,05,30,11,20,19.20
2007,05,30,11,21,19.30
2007,05,30,11,22,19.30
2007,05,30,11,23,19.20
2007,05,30,11,24,19.20
2007,05,30,11,25,19.30
2007,05,30,11,26,19.30
2007,05,30,11,27,19.60
2007,05,30,11,28,19.70
2007,05,30,11,29,19.70
2007,05,30,11,30,19.60
2007,05,30,11,31,19.60
2007,05,30,11,32,19.60
2007,05,30,11,33,19.60
2007,05,30,11,34,19.60
2007,05,30,11,35,19.60
2007,05,30,11,36,19.60
2007,05,30,11,37,19.50
2007,05,30,11,38,19.40
2007,05,30,11,39,19.30
2007,05,30,11,40,19.30
2007,05,30,11,41,19.20
2007,05,30,11,42,19.10
2007,05,30,11,43,19.10
2007,05,30,11,44,19.20
2007,05,30,11,45,19.30
2007,05,30,11,46,19.30
2007,05,30,11,47,19.30
2007,05,30,11,48,19.20
2007,05,30,11,49,19.20
2007,05,30,11,50,19.10
2007,05,30,11,51,19.10
2007,05,30,11,52,19.10
2007,05,30,11,53,19.10
2007,05,30,11,54,19.20
2007,05,30,11,55,19.30
2007,05,30,11,56,19.40
2007,05,30,11,57,19.30
2007,05,30,11,58,19.30
2007,05,30,11,59,19.20
2007,05,30,12,00,19.20
2007,05,30,12,01,19.20
2007,05,30,12,02,19.20
2007,05,30,12,03,19.20
2007,05,30,12,04,19.10
2007,05,30,12,05,19.20
2007,05,30,12,06,19.20
2007,05,30,12,07,19.30
2007,05,30,12,08,19.40
2007,05,30,12,09,19.40
2007,05,30,12,10,19.50
2007,05,30,12,11,19.40
2007,05,30,12,12,19.30
2007,05,30,12,13,19.30
2007,05,30,12,14,19.40
2007,05,30,12,15,19.50
2007,05,30,12,16,19.60
2007,05,30,12,17,19.60
2007,05,30,12,18,19.50
2007,05,30,12,19,19.50
2007,05,30,12,20,19.50
2007,05,30,12,21,19.50
2007,05,30,12,22,19.50
2007,05,30,12,23,19.50
2007,05,30,12,24,19.50
2007,05,30,12,25,19.40
2007,05,30,12,26,19.40
2007,05,30,12,27,19.40
2007,05,30,12,28,19.40
2007,05,30,12,29,19.40
2007,05,30,12,30,19.60
2007,05,30,12,31,19.70
2007,05,30,12,32,19.80
2007,05,30,12,33,19.90
2007,05,30,12,34,19.90
2007,05,30,12,35,19.90
2007,05,30,12,36,19.90
2007,05,30,12,37,20.00
2007,05,30,12,38,20.10
2007,05,30,12,39,20.20
2007,05,30,12,40,20.20
2007,05,30,12,41,20.20
2007,05,30,12,42,20.20
2007,05,30,12,43,20.20
2007,05,30,12,44,20.20
2007,05,30,12,45,20.20
2007,05,30,12,46,20.20
2007,05,30,12,47,20.20
2007,05,30,12,48,20.20
2007,05,30,12,49,20.20
2007,05,30,12,50,20.20
2007,05,30,12,51,20.10
2007,05,30,12,52,20.10
2007,05,30,12,53,20.10
2007,05,30,12,54,20.10
2007,05,30,12,55,20.10
2007,05,30,12,56,20.10
2007,05,30,12,57,20.10
2007,05,30,12,58,20.10
2007,05,30,12,59,20.10
2007,05,30,13,00,20.10
2007,05,30,13,01,20.10
2007,05,30,13,02,20.10
2007,05,30,13,03,20.10
2007,05,30,13,04,20.10
2007,05,30,13,05,20.10
2007,05,30,13,06,20.20
2007,05,30,13,07,20.20
2007,05,30,13,08,20.20
2007,05,30,13,09,20.20
2007,05,30,13,10,20.30
2007,05,30,13,11,20.40
2007,05,30,13,12,20.50
2007,05,30,13,13,20.50
2007,05,30,13,14,20.50
2007,05,30,13,15,20.50
2007,05,30,13,16,20.40
2007,05,30,13,17,20.40
2007,05,30,13,18,20.50
2007,05,30,13,19,20.60
2007,05,30,13,20,20.60
2007,05,30,13,21,20.50
2007,05,30,13,22,20.60
2007,05,30,13,23,20.60
2007,05,30,13,24,20.60
2007,05,30,13,25,20.60
2007,05,30,13,26,20.60
2007,05,30,13,27,20.60
2007,05,30,13,28,20.60
2007,05,30,13,29,20.70
2007,05,30,13,30,20.70
2007,05,30,13,31,20.60
2007,05,30,13,32,20.60
2007,05,30,13,33,20.70
2007,05,30,13,34,20.80
2007,05,30,13,35,20.80
2007,05,30,13,36,20.80
2007,05,30,13,37,20.70
2007,05,30,13,38,20.60
2007,05,30,13,39,20.60
2007,05,30,13,40,20.60
2007,05,30,13,41,20.60
2007,05,30,13,42,20.60
2007,05,30,13,43,20.50
2007,05,30,13,44,20.50
2007,05,30,13,45,20.50
2007,05,30,13,46,20.60
2007,05,30,13,47,20.70
2007,05,30,13,48,20.70
2007,05,30,13,49,20.60
2007,05,30,13,50,20.70
2007,05,30,13,51,20.70
2007,05,30,13,52,20.70
2007,05,30,13,53,20.70
2007,05,30,13,54,20.60
2007,05,30,13,55,20.60
2007,05,30,13,56,20.50
2007,05,30,13,57,20.50
2007,05,30,13,58,20.50
2007,05,30,13,59,20.50
2007,05,30,14,00,20.50
2007,05,30,14,01,20.50
2007,05,30,14,02,20.50
2007,05,30,14,03,20.70
2007,05,30,14,04,20.80
2007,05,30,14,05,20.80
2007,05,30,14,06,20.80
2007,05,30,14,07,20.80
2007,05,30,14,08,20.80
2007,05,30,14,09,20.90
2007,05,30,14,10,20.80
2007,05,30,14,11,20.90
2007,05,30,14,12,20.80
2007,05,30,14,13,20.70
2007,05,30,14,14,20.60
2007,05,30,14,15,20.60
2007,05,30,14,16,20.60
2007,05,30,14,17,20.70
2007,05,30,14,18,20.70
2007,05,30,14,19,20.70
2007,05,30,14,20,20.70
2007,05,30,14,21,20.80
2007,05,30,14,22,20.80
2007,05,30,14,23,20.90
2007,05,30,14,24,20.90
2007,05,30,14,25,21.00
2007,05,30,14,26,21.00
2007,05,30,14,27,21.00
2007,05,30,14,28,21.00
2007,05,30,14,29,21.00
2007,05,30,14,30,21.10
2007,05,30,14,31,21.10
2007,05,30,14,32,21.20
2007,05,30,14,33,21.30
2007,05,30,14,34,21.30
2007,05,30,14,35,21.40
2007,05,30,14,36,21.50
2007,05,30,14,37,21.50
2007,05,30,14,38,21.50
2007,05,30,14,39,21.60
2007,05,30,14,40,21.60
2007,05,30,14,41,21.60
2007,05,30,14,42,21.60
2007,05,30,14,43,21.40
2007,05,30,14,44,21.40
2007,05,30,14,45,21.50
2007,05,30,14,46,21.60
2007,05,30,14,47,21.60
2007,05,30,14,48,21.80
2007,05,30,14,49,21.90
2007,05,30,14,50,22.00
2007,05,30,14,51,22.00
2007,05,30,14,52,22.10
2007,05,30,14,53,22.00
2007,05,30,14,54,22.00
2007,05,30,14,55,22.00
2007,05,30,14,56,22.00
2007,05,30,14,57,21.90
2007,05,30,14,58,22.00
2007,05,30,14,59,21.90
2007,05,30,15,00,21.90
2007,05,30,15,01,22.00
2007,05,30,15,02,22.10
2007,05,30,15,03,22.10
2007,05,30,15,04,22.10
2007,05,30,15,05,22.00
2007,05,30,15,06,22.00
2007,05,30,15,07,22.00
2007,05,30,15,08,22.00
2007,05,30,15,09,22.00
2007,05,30,15,10,22.00
2007,05,30,15,11,22.00
2007,05,30,15,12,22.00
2007,05,30,15,13,22.00
2007,05,30,15,14,22.10
2007,05,30,15,15,22.20
2007,05,30,15,16,22.30
2007,05,30,15,17,22.30
2007,05,30,15,18,22.10
2007,05,30,15,19,22.00
2007,05,30,15,20,22.00
2007,05,30,15,21,22.00
2007,05,30,15,22,22.00
2007,05,30,15,23,22.00
2007,05,30,15,24,22.10
2007,05,30,15,25,22.20
2007,05,30,15,26,22.20
2007,05,30,15,27,22.10
2007,05,30,15,28,22.10
2007,05,30,15,29,22.20
2007,05,30,15,30,22.40
2007,05,30,15,31,22.60
2007,05,30,15,32,22.80
2007,05,30,15,33,23.10
2007,05,30,15,34,23.20
2007,05,30,15,35,23.30
2007,05,30,15,36,23.50
2007,05,30,15,37,23.70
2007,05,30,15,38,23.90
2007,05,30,15,39,24.00
2007,05,30,15,40,24.10
2007,05,30,15,41,24.20
2007,05,30,15,42,24.30
2007,05,30,15,43,24.30
2007,05,30,15,44,24.40
2007,05,30,15,45,24.50
2007,05,30,15,46,24.50
2007,05,30,15,47,24.50
2007,05,30,15,48,24.60
2007,05,30,15,49,24.70
2007,05,30,15,50,24.80
2007,05,30,15,51,24.80
2007,05,30,15,52,24.80
2007,05,30,15,53,24.90
2007,05,30,15,54,24.90
2007,05,30,15,55,24.80
2007,05,30,15,56,24.70
2007,05,30,15,57,24.70
2007,05,30,15,58,24.60
2007,05,30,15,59,24.60
2007,05,30,16,00,24.60
2007,05,30,16,01,24.70
2007,05,30,16,02,24.80
2007,05,30,16,03,24.90
2007,05,30,16,04,25.00
2007,05,30,16,05,25.10
2007,05,30,16,06,25.10
2007,05,30,16,07,25.20
2007,05,30,16,08,25.20
2007,05,30,16,09,25.20
2007,05,30,16,10,25.20
2007,05,30,16,11,25.10
2007,05,30,16,12,25.10
2007,05,30,16,13,25.10
2007,05,30,16,14,25.00
2007,05,30,16,15,24.90
2007,05,30,16,16,24.80
2007,05,30,16,17,24.80
2007,05,30,16,18,24.70
2007,05,30,16,19,24.70
2007,05,30,16,20,24.70
2007,05,30,16,21,24.60
2007,05,30,16,22,24.60
2007,05,30,16,23,24.50
2007,05,30,16,24,24.50
2007,05,30,16,25,24.50
2007,05,30,16,26,24.50
2007,05,30,16,27,24.40
2007,05,30,16,28,24.30
2007,05,30,16,29,24.20
2007,05,30,16,30,24.10
2007,05,30,16,31,24.10
2007,05,30,16,32,24.00
2007,05,30,16,33,23.90
2007,05,30,16,34,23.90
2007,05,30,16,35,23.80
2007,05,30,16,36,23.70
2007,05,30,16,37,23.70
2007,05,30,16,38,23.60
2007,05,30,16,39,23.50
2007,05,30,16,40,23.30
2007,05,30,16,41,23.30
2007,05,30,16,42,23.30
2007,05,30,16,43,23.30
2007,05,30,16,44,23.30
2007,05,30,16,45,23.20
2007,05,30,16,46,23.20
2007,05,30,16,47,23.20
2007,05,30,16,48,23.20
2007,05,30,16,49,23.30
2007,05,30,16,50,23.30
2007,05,30,16,51,23.30
2007,05,30,16,52,23.30
2007,05,30,16,53,23.30
2007,05,30,16,54,23.30
2007,05,30,16,55,23.30
2007,05,30,16,56,23.20
2007,05,30,16,57,23.10
2007,05,30,16,58,23.10
2007,05,30,16,59,23.00
2007,05,30,17,00,22.90
2007,05,30,17,01,22.90
2007,05,30,17,02,22.90
2007,05,30,17,03,22.90
2007,05,30,17,04,22.80
2007,05,30,17,05,22.80
2007,05,30,17,06,22.70
2007,05,30,17,07,22.70
2007,05,30,17,08,22.70
2007,05,30,17,09,22.70
2007,05,30,17,10,22.70
2007,05,30,17,11,22.70
2007,05,30,17,12,22.80
2007,05,30,17,13,22.80
2007,05,30,17,14,22.90
2007,05,30,17,15,22.90
2007,05,30,17,16,22.90
2007,05,30,17,17,22.90
2007,05,30,17,18,22.90
2007,05,30,17,19,22.90